This is the latest recevied weather packets stored in our database for station/object KO4FR. If no packets are shown the sender has not sent any weather packets the latest 10 day(s).
| Time | Temp. | Humidity | Pressure | Rain* | Wind** | Luminosity | Snow |
|---|---|---|---|---|---|---|---|
| 1777925695 | 23.89° C | 30% | 1013.5 hPa | 0 mm | - | - | - |
| 1777925394 | 23.33° C | 30% | 1013.5 hPa | 0 mm | - | - | - |
| 1777925095 | 23.33° C | 30% | 1013.5 hPa | 0 mm | - | - | - |
| 1777924795 | 23.89° C | 30% | 1013.6 hPa | 0 mm | - | - | - |
| 1777924495 | 23.89° C | 29% | 1013.5 hPa | 0 mm | - | - | - |
| 1777924195 | 23.89° C | 28% | 1013.7 hPa | 0 mm | - | - | - |
| 1777923894 | 24.44° C | 28% | 1013.7 hPa | 0 mm | - | - | - |
| 1777923595 | 25.56° C | 25% | 1013.9 hPa | 0 mm | - | - | - |
| 1777923295 | 25.56° C | 27% | 1013.9 hPa | 0 mm | - | - | - |
| 1777922994 | 25° C | 26% | 1013.8 hPa | 0 mm | - | - | - |
| 1777922695 | 25° C | 26% | 1013.8 hPa | 0 mm | - | - | - |
| 1777922395 | 25° C | 27% | 1013.9 hPa | 0 mm | - | - | - |
| 1777922094 | 25.56° C | 26% | 1014.2 hPa | 0 mm | - | - | - |
| 1777921794 | 25.56° C | 26% | 1014.1 hPa | 0 mm | - | - | - |
| 1777921494 | 25° C | 28% | 1014.2 hPa | 0 mm | - | - | - |
| 1777921195 | 25° C | 28% | 1014.3 hPa | 0 mm | - | - | - |
| 1777920894 | 25° C | 27% | 1014.3 hPa | 0 mm | - | - | - |
| 1777920595 | 25° C | 26% | 1014.4 hPa | 0 mm | - | - | - |
| 1777920295 | 25° C | 27% | 1014.4 hPa | 0 mm | - | - | - |
| 1777919995 | 25° C | 28% | 1014.4 hPa | 0 mm | - | - | - |
| 1777919695 | 24.44° C | 27% | 1014.4 hPa | 0 mm | - | - | - |
| 1777919394 | 24.44° C | 27% | 1014.4 hPa | 0 mm | - | - | - |
| 1777919094 | 24.44° C | 27% | 1014.4 hPa | 0 mm | - | - | - |
| 1777918794 | 24.44° C | 26% | 1014.6 hPa | 0 mm | - | - | - |
| 1777918494 | 24.44° C | 25% | 1014.7 hPa | 0 mm | - | - | - |
* Rain latest hour (hover to see other rain measurements)
** Current wind speed in m/s (hover to see current wind gust speed)